User: anonymous   Login
Location: Dover
(39.1580°N, 75.5250°W)
Time: 17:20:37
(UTC-04:00)
Language:

Cosmos 1437 Rocket - Orbit

View from above orbital plane
View from above orbital plane
View from above satellite
View from above satellite

Ground track
Ground track

The orbit data is extracted from the following two-line orbital elements,

1 13771U 83003B   14296.79914091  .00004330  00000-0  28641-3 0  1610
2 13771 081.1589 036.8093 0029445 328.6972 031.2497 15.06814878727913
Epoch (UTC): 23 October 2014 19:10:45
Eccentricity: 0.0029445
inclination: 81.1589°
perigee height: 525 km
apogee height: 566 km
right ascension of ascending node: 36.8093°
argument of perigee: 328.6972°
revolutions per day: 15.06814878
mean anomaly at epoch: 31.2497°
orbit number at epoch: 72791

The dashed part of the orbit path shows where the satellite is in the earth's shadow,  

DLR